Terug naar catalogus

THOR ABLESTAR DEB

ActiefLEO
NORAD 210·DEBRIS·🇺🇸 United States

Gelanceerd Jun 29, 1961 vanaf Cape Canaveral Space Force Station

Loading…

Volgende Passages (komende 24 uur)

TLE

VersSource: Space-Track

Epoch: Sep 14, 2026, 09:50 UTC

1 00210U 61015BE  26257.40980039  .00000342  00000-0  34226-3 0  9990
2 00210  66.4565 145.2884 0053193 258.7633 100.7461 13.89160462277795

Volg THOR ABLESTAR DEB in realtime met AllMySat

Download on the App Store